Location: Kvarnån
(66.4000°N, 22.2667°E)
Time: 22:37:47
(UTC+00:00)

USA 281 - Pass Details

Date: 15 October 2024
Orbit: 1078 x 1081 km, 106.0° (Epoch: 05 November)

Event Time Altitude Azimuth Distance (km) Brightness Sun altitude
Rises 19:20:15 0° 54° (NE) 3,890 6.0 -25.2°
Reaches altitude 10° 19:22:48 10° 51° (NE) 2,933 5.4 -25.4°
Maximum altitude 19:29:13 57° 335° (NNW) 1,263 3.8 -25.9°
Drops below altitude 10° 19:35:37 10° 259° (W) 2,929 5.9 -26.4°
Sets 19:38:10 0° 256° (WSW) 3,884 6.5 -26.5°
